[ hide orbit diagram ]
For accurate long-term ephemerides, please instead use our Horizons system.This orbit viewer was implemented using two-body methods, and hence should not be used for determining accurate long-term trajectories (over several years or decades) or planetary encounter circumstances.
Orbital Elements at Epoch 2459200.5 (2020-Dec-17.0) TDB
Reference: JPL 27 (heliocentric ecliptic J2000)
Element | Value | Uncertainty (1-sigma) | Units |
e | .1132689418975796 | 5.1022e-08 | |
a | 3.207406127868775 | 4.2587e-08 | au |
q | 2.844106629529266 | 1.5559e-07 | au |
i | 9.317684977264872 | 5.0916e-06 | deg |
node | 253.9607595396441 | 3.0373e-05 | deg |
peri | 274.8618425434832 | 3.809e-05 | deg |
M | 157.5036850464734 | 2.315e-05 | deg |
tp | 2458282.553062510975 (2018-Jun-13.05306251) | 0.00013068 | TDB |
period | 2098.115338689011 5.74 | 4.1788e-05 1.144e-07 | d yr |
n | .1715825595293264 | 3.4174e-09 | deg/d |
Q | 3.570705626208284 | 4.7411e-08 | au |
|
| | Orbit Determination Parameters
Additional Information
|
[ show covariance matrix ]
Physical Parameter Table
Parameter |
Symbol |
Value |
Units |
Sigma |
Reference |
Notes |
absolute magnitude |
H |
14.92 |
|
n/a |
E2021B55 |
|
|
157640 Baumeler | Discovered 2006 Dec. 1 by P. Kocher at Observatoire Naef. |
Martin Baumeler (b. 1936) is a skilled artisan who devised techniques for installing the telescope and coelostat at the Observatoire R. A. Naef, where this minor planet was discovered. |
NOTE: some special characters may not display properly (any characters within {} are an attempt to place the proper accent above a character) |
Reference: 20070730/MPCPages.arc | Last Updated: 2007-08-07 |
|
[ show close-approach data ]
|